Overview Statistics Trail Chart Weather Telemetry Raw packets
 

This is the latest recevied weather packets stored in our database for station/object N1YZ. If no packets are shown the sender has not sent any weather packets the latest 10 day(s).

<< 31 32 33 34 35 36 37 >>
Time Temp. Humidity Pressure Rain* Wind** Luminosity Snow
1788445528 30.56° C 73% 1036.8 hPa 0 mm - 292 W/m² -
1788445226 30.56° C 75% 1036.9 hPa 0 mm - 277 W/m² -
1788444921 30° C 76% 1037 hPa 0 mm - 266 W/m² -
1788444616 29.44° C 77% 1036.7 hPa 0 mm - 252 W/m² -
1788444311 28.89° C 82% 1036.8 hPa 0 mm - 206 W/m² -
1788444007 28.89° C 82% 1037 hPa 0 mm - 67 W/m² -
1788443702 28.33° C 83% 1036.9 hPa 0 mm - 47 W/m² -
1788443396 28.33° C 84% 1037 hPa 0 mm - 41 W/m² -
1788443095 28.33° C 85% 1037.1 hPa 0 mm - 41 W/m² -
1788442792 27.78° C 85% 1036.8 hPa 0 mm - 88 W/m² -
1788442489 27.22° C 87% 1037.1 hPa 0 mm - 75 W/m² -
1788442184 27.22° C 88% 1037.2 hPa 0 mm - 32 W/m² -
1788441880 27.22° C 88% 1037.1 hPa 0 mm - 31 W/m² -
1788441579 26.67° C 88% 1037.1 hPa 0 mm - 31 W/m² -
1788441275 26.67° C 90% 1037.1 hPa 0 mm - 31 W/m² -
1788440973 26.11° C 91% 1037 hPa 0 mm - 31 W/m² -
1788440669 26.11° C 91% 1036.9 hPa 0 mm - 27 W/m² -
1788440367 26.11° C 92% 1037.1 hPa 0 mm - 26 W/m² -
1788440062 25.56° C 92% 1036.9 hPa 0 mm - 24 W/m² -
1788439761 25.56° C 92% 1036.8 hPa 0 mm - 24 W/m² -
1788439473 25.56° C 93% 1036.9 hPa 0 mm - 21 W/m² -
1788439155 25.56° C 94% 1036.8 hPa 0 mm - 21 W/m² -
1788438850 25° C 96% 1036.9 hPa 0 mm - 19 W/m² -
1788438549 25° C 96% 1036.9 hPa 0 mm - 18 W/m² -
1788438244 25° C 96% 1036.9 hPa 0 mm - 17 W/m² -

* Rain latest hour (hover to see other rain measurements)
** Current wind speed in m/s (hover to see current wind gust speed)